Regional Weather Roundup
Issued by NWS Northern Indiana

Home | Current Version | Previous Version | Text Only | Print | Product List | Glossary Off
Versions: 1 2 3 4 5 6 7 8 9 10 11 12 13 14 15 16 17 18 19 20 21 22 23 24 25 26 27 28 29 30 31 32 33 34 35 36 37 38 39 40 41 42 43 44 45 46 47 48 49 50

000
ASUS43 KIWX 300210
RWRIWX

KIWX WEATHER ROUNDUP
NATIONAL WEATHER SERVICE NORTHERN INDIANA
1000 PM EDT THU SEP 29 2016

NOTE: "FAIR" INDICATES FEW OR NO CLOUDS BELOW 12,000 FEET WITH NO
SIGNIFICANT WEATHER AND/OR OBSTRUCTIONS TO VISIBILITY.

* THESE STATIONS ARE NOT UNDER NWS QUALITY CONTROL. THEY ALSO MAY NOT
  REPORT WEATHER SUCH AS PRECIPITATION OR FOG.

INZ001>027-300300-
NORTHERN INDIANA

CITY           SKY/WX    TMP DP  RH WIND       PRES   REMARKS
GARY*          CLOUDY    64  59  82 NE12G23   30.21S
VALPARAISO     CLOUDY    61  57  87 N8        30.19S
MICHIGAN CITY* RAIN      59  59 100 CALM      30.20S
LAPORTE*       RAIN     N/A N/A N/A NE7       30.19S
KNOX*          CLOUDY    61  43  51 NE10G16   30.17S
SOUTH BEND     LGT RAIN  58  57  97 NE12      30.19F
GOSHEN         LGT RAIN  60  56  86 N12       30.16S
MONTICELLO*    LGT RAIN  63  51  65 NE6       30.14S
LOGANSPORT*    LGT RAIN  61  57  88 NE7       30.14F
ROCHESTER*     DRIZZLE   63  63 100 N8        30.15F
WARSAW*        LGT RAIN  59  59 100 N9        30.15F
ANGOLA*          N/A     59  48  67 NE8       30.15F
FORT WAYNE     LGT RAIN  61  59  93 N10       30.12F FOG
HUNTINGTON*    CLOUDY    60  59  96 NE5       30.12F
PERU/GRISSOM   LGT RAIN  61  59  93 N8        30.12S
MARION*        CLOUDY    60  56  89 N8        30.13S

$$
INZ028>050-300300-
CENTRAL INDIANA

CITY           SKY/WX    TMP DP  RH WIND       PRES   REMARKS
LAFAYETTE      CLOUDY    62  53  72 N7        30.13R
KOKOMO*        CLOUDY    61  57  88 N12       30.14R
MUNCIE*        MOCLDY    60  57  89 N7        30.10S
INDIANAPOLIS   MOCLDY    63  53  70 NE9       30.10R

$$
MIZ043>046-050>051-056>058-064>065-071>073-077>080-300300-
SOUTHWEST LOWER MICHIGAN

CITY           SKY/WX    TMP DP  RH WIND       PRES   REMARKS
BATTLE CREEK   CLOUDY    59  58  96 NE13      30.19F
BENTON HARBOR  LGT RAIN  60  56  86 NE6       30.21S
COLDWATER*     RAIN      59  59 100 NE9       30.16F
HILLSDALE*     RAIN      59  55  88 NE6       30.16S
HOLLAND        CLOUDY    59  56  89 NE7G18    30.24S
GRAND RAPIDS   CLOUDY    59  55  87 NE13      30.24F
KALAMAZOO      CLOUDY    60  55  83 NE8G20    30.21S
STURGIS*       HVY RAIN  59  57  92 NE10G16   30.16F
THREE RIVERS*  LGT RAIN  60  58  92 NE8       30.19R

$$
OHZ001>008-015>018-024>025-300300-
NORTHWEST OHIO

CITY           SKY/WX    TMP DP  RH WIND       PRES   REMARKS
WAUSEON*       RAIN      59  59 100 NE10      30.13F
DEFIANCE       CLOUDY    62  58  86 NE10      30.12F
FINDLAY        MOCLDY    60  56  86 CALM      30.11S FOG
TOLEDO EXPRESS LGT RAIN  60  60 100 NE13      30.12F FOG
TOLEDO METCALF CLOUDY    63  62  97 NE6       30.13S
LIMA           PTCLDY    58  58 100 CALM      30.10F

$$
AND FOR LAKE MICHIGAN COASTAL AND OPEN LAKE BUOY OBSERVATIONS

STATION/POSITION TEMP    WIND        PRES    VSBY  WAVE
                 AIR SEA DIR/SP/G                  HT/PER
                 (F)     (DEG/KT/KT) (MB)    (MI)  (FT/S)
CALUMET HARBOR    63      30/ 13/ 17 1022.5F
MICHIGAN CITY     61      20/ 20/ 21   N/A
BURNS HARBOR      62      50/ 18/ 21 1022.7S
SAINT JOSEPH      60      40/  3/  9 1023.0
SOUTH LAKE BUOY   63 68   60/ 19/ 23 1023.5R         6/ 6
4 MI NW BRIDGMAN  59 60   20/ 10/ 14 1023.0          4/ 7
MICHIGAN CITY     62 65   40/ 16/ 21   N/A           6/ 7

$$
&&



USA.gov is the U.S. government's official web portal to all federal, state and local government web resources and services.